Lumberton, NC

4:18 AM EDT on April 27, 2017 (GMT -0400)
Lumberton Municipal

Weather History for KLBT - March, 2012

Change the Weather History Date:

Saturday, March 24, 2012

  Actual Average Record
Temperature  
Mean Temperature 72 °F 56 °F  
Max Temperature 80 °F 69 °F 84 °F (2007)
Min Temperature 64 °F 44 °F 28 °F (2004)
Degree Days  
Heating Degree Days 0 9  
Month to date heating degree days 135 290  
Since 1 July heating degree days 1983 2520  
Cooling Degree Days 7 0  
Month to date cooling degree days 51 0  
Year to date cooling degree days 51 3  
Growing Degree Days 20 (Base 50)    
Moisture  
Dew Point 63 °F    
Average Humidity 73    
Maximum Humidity 87    
Minimum Humidity 58    
Precipitation  
Precipitation 0.14 in 0.09 in 0.72 in (2013)
Month to date precipitation 1.90 2.54  
Year to date precipitation 6.42 8.41  
Sea Level Pressure  
Sea Level Pressure 29.86 in    
Wind  
Wind Speed 5 mph (SSW)    
Max Wind Speed 13 mph    
Max Gust Speed 17 mph    
Visibility 5 miles    
Events Rain    
T = Trace of Precipitation, MM = Missing Value Source: NWS Daily Summary

Daily Weather History Graph

Daily Weather History Graph

Search for Another Location

Airport or City:

Trip Planner

Search our weather history database for the weather conditions in past years. The results will help you decide how hot, cold, wet, or windy it might be!

Date:

Astronomy

Mar. 24, 2012 Rise Set
Actual Time 7:13 AM EDT 7:31 PM EDT
Civil Twilight 6:48 AM EDT 7:56 PM EDT
Nautical Twilight 6:19 AM EDT 8:26 PM EDT
Astronomical Twilight 5:49 AM EDT 8:56 PM EDT
Moon 7:58 AM EDT (3/24) 9:40 PM EDT (3/24)
Length of Visible Light 13h 08m
Length of Day
12h 17m
Waxing Crescent, 4% of the Moon is Illuminated
Mar 24
Waxing Crescent
Mar 30
First Quarter
Apr 6
Full
Apr 13
Last Quarter
Apr 21
New

Hourly Weather History & Observations

Time (EDT) Temp. Dew Point Humidity Pressure Visibility Wind Dir Wind Speed Gust Speed Precip Events Conditions
12:54 AM 68.0 °F 64.0 °F 87% 29.99 in 10.0 mi South 3.5 mph - N/A   Overcast
1:54 AM 68.0 °F 63.0 °F 84% 29.98 in 10.0 mi SSW 4.6 mph - N/A   Overcast
2:54 AM 68.0 °F 63.0 °F 84% 29.96 in 10.0 mi SW 5.8 mph - N/A   Mostly Cloudy
3:54 AM 66.9 °F 63.0 °F 87% 29.94 in 10.0 mi SW 3.5 mph - N/A   Overcast
4:54 AM 66.0 °F 63.0 °F 90% 29.93 in 9.0 mi Calm Calm - 0.00 in Rain Light Rain
5:54 AM 64.9 °F 63.0 °F 93% 29.93 in 7.0 mi SSW 3.5 mph - 0.00 in Rain Light Rain
6:54 AM 64.9 °F 64.0 °F 97% 29.94 in 6.0 mi Calm Calm - 0.01 in   Mostly Cloudy
7:54 AM 64.9 °F 64.0 °F 97% 29.95 in 2.5 mi SSE 3.5 mph - 0.03 in Rain Light Rain
8:16 AM 64.4 °F 64.4 °F 100% 29.95 in 1.5 mi SSE 3.5 mph - 0.04 in Rain Rain
8:33 AM 64.4 °F 64.4 °F 100% 29.95 in 2.0 mi Calm Calm - 0.08 in Rain Light Rain
8:40 AM 64.4 °F 64.4 °F 100% 29.95 in 4.0 mi Calm Calm - 0.08 in   Overcast
8:54 AM 66.0 °F 64.9 °F 96% 29.95 in 4.0 mi Calm Calm - 0.08 in   Overcast
9:40 AM 66.2 °F 64.4 °F 94% 29.95 in 3.0 mi SSE 3.5 mph - 0.00 in Rain Light Rain
9:54 AM 66.9 °F 64.9 °F 93% 29.94 in 3.0 mi SSE 4.6 mph - 0.02 in Rain Light Rain
10:54 AM 70.0 °F 66.0 °F 87% 29.94 in 9.0 mi South 6.9 mph - 0.00 in   Overcast
11:31 AM 69.8 °F 64.4 °F 83% 29.93 in 10.0 mi SW 5.8 mph - N/A   Overcast
11:54 AM 70.0 °F 64.9 °F 84% 29.92 in 9.0 mi SSW 4.6 mph - N/A   Overcast
12:54 PM 73.9 °F 66.9 °F 79% 29.88 in 9.0 mi SSW 4.6 mph - N/A   Mostly Cloudy
1:54 PM 75.9 °F 66.0 °F 71% 29.85 in 10.0 mi SW 8.1 mph - N/A   Partly Cloudy
2:54 PM 78.1 °F 63.0 °F 60% 29.82 in 10.0 mi SSW 3.5 mph 16.1 mph N/A   Scattered Clouds
3:54 PM 78.1 °F 64.0 °F 62% 29.78 in 10.0 mi South 8.1 mph - N/A   Partly Cloudy
4:54 PM 75.9 °F 64.0 °F 67% 29.77 in 10.0 mi SE 4.6 mph - N/A   Partly Cloudy
5:15 PM 71.6 °F 66.2 °F 83% 29.78 in 1.5 mi SSW 8.1 mph - 0.06 in Rain Rain
5:19 PM 69.8 °F 64.4 °F 83% 29.78 in 0.8 mi South 18.4 mph 25.3 mph 0.09 in Rain Heavy Rain
5:41 PM 66.2 °F 55.4 °F 68% 29.81 in 0.2 mi Variable 4.6 mph 29.9 mph 0.77 in Rain Heavy Rain
5:50 PM 64.4 °F 57.2 °F 77% 29.82 in 1.8 mi WNW 10.4 mph - 0.78 in Rain Light Rain
5:54 PM 63.0 °F 59.0 °F 87% 29.83 in 4.0 mi NW 12.7 mph - 0.79 in Rain Rain
6:02 PM 62.6 °F 59.0 °F 88% 29.83 in 1.5 mi WNW 8.1 mph - 0.08 in Rain Light Rain
6:04 PM 64.4 °F 59.0 °F 83% 29.83 in 0.8 mi Variable 6.9 mph - 0.11 in Rain Heavy Rain
6:30 PM 64.4 °F 62.6 °F 94% 29.80 in 1.2 mi SSE 10.4 mph - 0.55 in Rain Rain
6:34 PM 66.2 °F 62.6 °F 88% 29.79 in 3.0 mi SSE 12.7 mph - 0.55 in Rain Light Rain
6:42 PM 66.2 °F 62.6 °F 88% 29.79 in 10.0 mi SE 10.4 mph - 0.55 in   Scattered Clouds
6:54 PM 66.0 °F 63.0 °F 90% 29.79 in 10.0 mi SE 8.1 mph - 0.55 in   Partly Cloudy
7:54 PM 64.0 °F 62.1 °F 93% 29.79 in 10.0 mi Calm Calm - N/A   Clear
8:54 PM 61.0 °F 61.0 °F 100% 29.80 in 7.0 mi SSE 3.5 mph - N/A   Partly Cloudy
9:54 PM 63.0 °F 62.1 °F 97% 29.81 in 6.0 mi Calm Calm - N/A   Overcast
10:32 PM 62.6 °F 62.6 °F 100% 29.82 in 1.8 mi WSW 3.5 mph - 0.06 in Rain Rain
10:36 PM 62.6 °F 62.6 °F 100% 29.82 in 1.0 mi Calm Calm - 0.10 in Rain Heavy Rain
10:46 PM 62.6 °F 62.6 °F 100% 29.81 in 1.8 mi Calm Calm - 0.13 in Rain Light Rain
10:49 PM 62.6 °F 62.6 °F 100% 29.80 in 3.0 mi Calm Calm - 0.14 in Rain Light Rain
10:54 PM 63.0 °F 62.1 °F 97% 29.81 in 4.0 mi South 3.5 mph - 0.14 in Rain Rain
11:52 PM 62.6 °F 62.6 °F 100% 29.82 in 2.5 mi SW 4.6 mph - 0.05 in Rain Light Rain
11:54 PM 62.1 °F 62.1 °F 100% 29.82 in 3.0 mi SW 4.6 mph - 0.05 in Rain Light Rain